contact:dominique.lefevre@mio.osupytheas.fr, maurice.libes@osupytheas.fr, didier.mallarino@osupytheas.fr
Project:EMSO http://www.emso-fr.org/EMSO-France
Depth: 2436.0 m
Title:EMSO Ligure Ouest : Data MII capteur AQUADOPP
Date,Latitude,Longitude,X_East,Y_North,Z_Up,Amplitude_X,Amplitude_Y,Amplitude_Z,Batterie,SoundSpeed,Heading,Pitch,Roll,Pressure,TIS,Speed,Direction
, degrees North, degrees East, m.s-1, m.s-1,m.s-1, 1, 1, 1, Volt, m.s-1, degree, degree, degree, dbar, degree_C, m.s-1, degree
2021-07-06T00:04:03,42.805,6.029,0.042,-0.018,0.001,101.0,104.0,100.0,13.4,1505.2,329.9,-0.8,1.8,2470.47,13.28,0.045,113.2
2021-07-06T00:07:03,42.805,6.029,0.025,0.0,-0.006,101.0,103.0,101.0,13.3,1505.2,328.3,-0.8,1.8,2470.436,13.28,0.025,90.0
2021-07-06T00:10:03,42.805,6.029,0.04,0.006,0.016,102.0,102.0,101.0,13.4,1505.2,325.7,-0.7,1.8,2470.457,13.28,0.04,81.5
2021-07-06T00:13:03,42.805,6.029,0.038,-0.007,0.048,101.0,103.0,99.0,13.4,1505.2,328.5,-0.8,1.8,2470.414,13.28,0.038,100.4
2021-07-06T00:16:03,42.805,6.029,0.026,-0.006,0.001,100.0,102.0,101.0,13.4,1505.2,328.6,-0.8,1.9,2470.429,13.28,0.026,103.0
2021-07-06T00:19:03,42.805,6.029,0.011,0.005,-0.021,103.0,102.0,100.0,13.4,1505.2,328.2,-0.8,1.8,2470.428,13.28,0.012,65.6
2021-07-06T00:22:03,42.805,6.029,0.061,-0.019,-0.009,100.0,104.0,100.0,13.4,1505.2,324.8,-0.7,1.9,2470.45,13.28,0.063,107.3
2021-07-06T00:25:03,42.805,6.029,0.018,-0.006,-0.002,103.0,103.0,99.0,13.3,1505.2,327.6,-0.7,1.8,2470.422,13.28,0.018,108.4
2021-07-06T00:28:03,42.805,6.029,0.021,-0.002,-0.008,101.0,102.0,101.0,13.4,1505.2,329.0,-0.8,1.8,2470.481,13.28,0.021,95.4
2021-07-06T00:31:03,42.805,6.029,0.04,-0.02,0.007,100.0,101.0,102.0,13.4,1505.2,324.7,-0.7,1.8,2470.407,13.28,0.044,116.6
2021-07-06T00:34:03,42.805,6.029,0.0,-0.008,0.019,100.0,102.0,101.0,13.4,1505.2,328.5,-0.8,1.8,2470.424,13.28,0.008,180.0
2021-07-06T00:37:03,42.805,6.029,0.022,0.006,0.03,102.0,104.0,99.0,13.4,1505.2,327.1,-0.8,1.8,2470.468,13.28,0.022,74.7
2021-07-06T00:40:03,42.805,6.029,0.012,-0.011,-0.015,102.0,103.0,101.0,13.4,1505.2,328.8,-0.8,1.8,2470.445,13.28,0.016,132.5
2021-07-06T00:43:03,42.805,6.029,0.006,0.001,0.009,102.0,102.0,100.0,13.4,1505.2,327.5,-0.7,1.8,2470.39,13.28,0.006,80.5
2021-07-06T00:46:03,42.805,6.029,0.018,-0.013,-0.016,101.0,103.0,100.0,13.4,1505.2,327.8,-0.8,1.8,2470.445,13.28,0.022,125.8
2021-07-06T00:49:03,42.805,6.029,0.011,-0.001,0.011,101.0,103.0,100.0,13.3,1505.2,327.1,-0.7,1.8,2470.424,13.28,0.011,95.2
2021-07-06T00:52:03,42.805,6.029,0.021,-0.03,-0.039,101.0,102.0,100.0,13.4,1505.2,328.4,-0.8,1.8,2470.432,13.28,0.036,145.0
2021-07-06T00:55:03,42.805,6.029,0.044,-0.008,-0.013,102.0,103.0,101.0,13.4,1505.2,327.7,-0.8,1.8,2470.443,13.28,0.044,100.3
2021-07-06T00:58:03,42.805,6.029,0.003,0.015,0.018,101.0,103.0,100.0,13.4,1505.2,324.7,-0.8,1.8,2470.43,13.28,0.015,11.3
2021-07-06T01:04:03,42.805,6.029,0.009,-0.004,-0.006,101.0,102.0,100.0,13.4,1505.2,327.5,-0.8,1.8,2470.487,13.28,0.009,114.0
2021-07-06T01:07:03,42.805,6.029,0.003,-0.01,-0.009,101.0,102.0,99.0,13.4,1505.2,326.1,-0.8,1.9,2470.431,13.28,0.01,163.3
2021-07-06T01:10:03,42.805,6.029,0.026,0.004,0.048,101.0,102.0,100.0,13.4,1505.2,328.9,-0.8,1.9,2470.469,13.28,0.026,81.3
2021-07-06T01:13:03,42.805,6.029,-0.002,-0.002,0.011,101.0,101.0,100.0,13.4,1505.2,327.9,-0.8,1.8,2470.437,13.28,0.002,225.0
2021-07-06T01:16:03,42.805,6.029,-0.001,0.0,0.003,101.0,102.0,100.0,13.4,1505.2,324.4,-0.7,1.8,2470.477,13.28,0.001,270.0
2021-07-06T01:19:03,42.805,6.029,0.011,-0.009,0.006,101.0,102.0,100.0,13.3,1505.2,328.4,-0.8,1.8,2470.464,13.28,0.014,129.3
2021-07-06T01:22:03,42.805,6.029,0.018,-0.015,-0.003,101.0,102.0,100.0,13.4,1505.2,326.8,-0.8,1.8,2470.464,13.28,0.023,129.8
2021-07-06T01:25:03,42.805,6.029,0.014,0.0,0.005,100.0,101.0,100.0,13.4,1505.2,326.4,-0.8,1.8,2470.462,13.28,0.014,90.0
2021-07-06T01:28:03,42.805,6.029,0.018,0.007,0.05,101.0,101.0,101.0,13.4,1505.2,327.5,-0.7,1.9,2470.464,13.28,0.019,68.8
2021-07-06T01:31:03,42.805,6.029,-0.005,-0.01,0.017,101.0,103.0,100.0,13.4,1505.2,328.1,-0.7,1.9,2470.466,13.28,0.011,206.6
2021-07-06T01:34:03,42.805,6.029,0.018,-0.009,-0.004,100.0,102.0,100.0,13.4,1505.2,329.0,-0.7,1.9,2470.452,13.28,0.02,116.6
2021-07-06T01:37:03,42.805,6.029,0.032,-0.02,0.028,101.0,102.0,100.0,13.3,1505.2,328.1,-0.7,1.8,2470.459,13.28,0.037,122.0
2021-07-06T01:40:03,42.805,6.029,0.023,-0.013,-0.03,100.0,102.0,100.0,13.4,1505.2,327.8,-0.8,1.8,2470.453,13.28,0.026,119.5
2021-07-06T01:43:03,42.805,6.029,0.009,-0.003,0.018,101.0,103.0,100.0,13.4,1505.2,328.3,-0.7,1.8,2470.499,13.28,0.009,108.4
2021-07-06T01:46:03,42.805,6.029,-0.004,0.007,0.024,100.0,102.0,100.0,13.4,1505.2,326.9,-0.7,1.9,2470.502,13.28,0.008,330.3
2021-07-06T01:49:03,42.805,6.029,-0.005,0.005,-0.01,100.0,101.0,101.0,13.3,1505.2,325.1,-0.7,1.8,2470.46,13.28,0.007,315.0
2021-07-06T01:52:03,42.805,6.029,0.011,-0.007,0.024,102.0,101.0,99.0,13.4,1505.2,329.8,-0.7,1.8,2470.489,13.28,0.013,122.5
2021-07-06T01:55:03,42.805,6.029,0.009,0.037,0.014,100.0,102.0,101.0,13.4,1505.2,326.7,-0.8,1.8,2470.481,13.28,0.038,13.7
2021-07-06T01:58:03,42.805,6.029,0.015,-0.013,-0.008,102.0,100.0,100.0,13.4,1505.2,328.9,-0.8,1.8,2470.433,13.28,0.019,130.9
2021-07-06T02:04:03,42.805,6.029,0.005,-0.011,0.013,102.0,100.0,100.0,13.3,1505.2,328.3,-0.8,1.8,2470.541,13.28,0.012,155.6
2021-07-06T02:07:03,42.805,6.029,0.013,-0.014,-0.007,101.0,101.0,100.0,13.3,1505.2,326.8,-0.8,1.8,2470.471,13.28,0.019,137.1
2021-07-06T02:10:03,42.805,6.029,0.038,-0.012,-0.003,101.0,103.0,100.0,13.4,1505.2,328.7,-0.8,1.8,2470.525,13.28,0.039,107.5
2021-07-06T02:13:03,42.805,6.029,0.008,0.01,0.025,101.0,102.0,100.0,13.4,1505.2,326.6,-0.7,1.8,2470.508,13.28,0.012,38.7
2021-07-06T02:16:03,42.805,6.029,-0.004,0.015,0.02,101.0,101.0,100.0,13.3,1505.2,328.3,-0.7,1.8,2470.497,13.28,0.015,345.1
2021-07-06T02:19:03,42.805,6.029,-0.001,-0.012,-0.013,100.0,101.0,100.0,13.4,1505.2,327.8,-0.8,1.8,2470.534,13.28,0.012,184.8
2021-07-06T02:22:03,42.805,6.029,-0.011,0.001,-0.01,101.0,100.0,101.0,13.4,1505.2,326.0,-0.7,1.8,2470.451,13.28,0.011,275.2
2021-07-06T02:25:03,42.805,6.029,0.012,0.011,0.0,101.0,102.0,101.0,13.4,1505.2,327.3,-0.7,1.8,2470.489,13.28,0.016,47.5
2021-07-06T02:28:03,42.805,6.029,0.018,-0.016,-0.03,102.0,101.0,100.0,13.4,1505.2,326.4,-0.7,1.8,2470.488,13.28,0.024,131.6
2021-07-06T02:31:03,42.805,6.029,-0.003,-0.005,-0.022,102.0,100.0,100.0,13.4,1505.2,328.5,-0.7,1.9,2470.469,13.28,0.005,211.0
2021-07-06T02:34:03,42.805,6.029,0.017,0.014,0.026,101.0,101.0,101.0,13.4,1505.2,328.5,-0.7,1.8,2470.525,13.28,0.022,50.5
2021-07-06T02:37:03,42.805,6.029,0.009,-0.006,0.008,100.0,103.0,100.0,13.4,1505.2,328.8,-0.7,1.8,2470.511,13.28,0.01,123.7
2021-07-06T02:40:03,42.805,6.029,0.026,-0.007,-0.003,101.0,101.0,101.0,13.4,1505.2,328.6,-0.7,1.8,2470.487,13.28,0.026,105.1
2021-07-06T02:43:03,42.805,6.029,-0.007,-0.001,-0.003,101.0,103.0,100.0,13.3,1505.2,330.2,-0.8,1.8,2470.516,13.28,0.007,261.9
2021-07-06T02:46:03,42.805,6.029,-0.013,-0.003,0.013,102.0,103.0,99.0,13.3,1505.2,329.5,-0.8,1.8,2470.495,13.28,0.013,257.0
2021-07-06T02:49:03,42.805,6.029,0.01,0.012,0.028,101.0,102.0,101.0,13.4,1505.2,327.3,-0.7,1.9,2470.494,13.28,0.015,39.8
2021-07-06T02:52:03,42.805,6.029,0.003,-0.005,0.022,101.0,104.0,100.0,13.4,1505.2,330.0,-0.7,1.8,2470.498,13.28,0.005,149.0
2021-07-06T02:55:03,42.805,6.029,0.013,0.012,0.005,100.0,103.0,101.0,13.4,1505.2,328.1,-0.8,1.9,2470.495,13.28,0.017,47.3
2021-07-06T02:58:03,42.805,6.029,0.032,0.01,0.019,100.0,103.0,100.0,13.4,1505.2,324.8,-0.8,1.9,2470.448,13.28,0.033,72.6
2021-07-06T03:04:03,42.805,6.029,0.017,0.008,0.014,101.0,104.0,99.0,13.4,1505.2,324.9,-0.8,1.8,2470.535,13.28,0.018,64.8
2021-07-06T03:07:03,42.805,6.029,0.014,0.013,0.031,101.0,103.0,100.0,13.3,1505.2,328.0,-0.8,1.8,2470.522,13.28,0.019,47.1
2021-07-06T03:10:03,42.805,6.029,-0.001,-0.008,0.043,101.0,103.0,101.0,13.4,1505.2,325.1,-0.7,1.8,2470.516,13.28,0.008,187.1
2021-07-06T03:13:03,42.805,6.029,-0.003,-0.003,0.006,102.0,103.0,99.0,13.3,1505.2,324.8,-0.8,1.8,2470.556,13.28,0.004,225.0
2021-07-06T03:16:03,42.805,6.029,0.014,0.004,0.035,102.0,102.0,99.0,13.4,1505.2,324.9,-0.7,1.8,2470.5,13.28,0.014,74.1
2021-07-06T03:19:03,42.805,6.029,-0.016,0.022,0.034,100.0,103.0,100.0,13.3,1505.2,325.3,-0.7,1.8,2470.53,13.28,0.027,324.0
2021-07-06T03:22:03,42.805,6.029,0.004,0.019,0.015,100.0,104.0,100.0,13.4,1505.2,324.9,-0.8,1.9,2470.508,13.28,0.019,11.9
2021-07-06T03:25:03,42.805,6.029,0.012,-0.016,-0.001,101.0,102.0,101.0,13.3,1505.2,328.7,-0.8,1.9,2470.539,13.28,0.02,143.1
2021-07-06T03:28:03,42.805,6.029,-0.003,-0.008,-0.024,101.0,103.0,100.0,13.4,1505.2,328.4,-0.8,1.8,2470.537,13.28,0.008,200.6
2021-07-06T03:31:03,42.805,6.029,0.014,0.013,0.028,100.0,104.0,101.0,13.4,1505.2,328.0,-0.7,1.8,2470.508,13.28,0.019,47.1
2021-07-06T03:34:03,42.805,6.029,0.006,0.003,0.008,100.0,105.0,100.0,13.3,1505.2,325.9,-0.7,1.8,2470.607,13.28,0.006,63.4
2021-07-06T03:37:03,42.805,6.029,0.016,-0.009,0.01,102.0,101.0,101.0,13.4,1505.2,324.7,-0.7,1.8,2470.528,13.28,0.018,119.4
2021-07-06T03:40:03,42.805,6.029,0.017,-0.01,0.01,101.0,103.0,100.0,13.4,1505.2,327.4,-0.7,1.8,2470.507,13.28,0.019,120.5
2021-07-06T03:43:03,42.805,6.029,0.024,0.003,0.027,103.0,102.0,100.0,13.4,1505.2,328.2,-0.8,1.9,2470.484,13.28,0.024,82.9
2021-07-06T03:46:03,42.805,6.029,0.001,0.002,0.034,101.0,104.0,101.0,13.3,1505.2,325.1,-0.7,1.8,2470.491,13.28,0.002,26.6
2021-07-06T03:49:03,42.805,6.029,0.005,-0.01,0.002,102.0,103.0,100.0,13.3,1505.2,327.9,-0.8,1.8,2470.47,13.28,0.011,153.4
2021-07-06T03:52:03,42.805,6.029,0.019,-0.003,0.012,102.0,105.0,99.0,13.4,1505.2,330.6,-0.7,1.8,2470.54,13.28,0.019,99.0
2021-07-06T03:55:03,42.805,6.029,0.042,0.0,0.057,101.0,104.0,100.0,13.4,1505.2,328.6,-0.7,1.8,2470.508,13.28,0.042,90.0
2021-07-06T03:58:03,42.805,6.029,0.025,0.014,0.059,100.0,103.0,101.0,13.4,1505.2,330.0,-0.7,1.9,2470.483,13.28,0.028,60.7
2021-07-06T04:04:03,42.805,6.029,0.012,0.005,0.026,101.0,104.0,100.0,13.4,1505.2,328.7,-0.7,1.8,2470.546,13.28,0.013,67.4
2021-07-06T04:07:03,42.805,6.029,0.021,-0.003,0.012,101.0,103.0,100.0,13.4,1505.2,327.4,-0.7,1.8,2470.581,13.28,0.021,98.1
2021-07-06T04:10:03,42.805,6.029,0.014,-0.002,0.008,99.0,103.0,101.0,13.4,1505.2,327.5,-0.7,1.9,2470.537,13.28,0.014,98.1
2021-07-06T04:13:03,42.805,6.029,0.019,0.009,0.012,101.0,103.0,101.0,13.3,1505.2,327.1,-0.7,1.8,2470.552,13.28,0.021,64.7
2021-07-06T04:16:03,42.805,6.029,-0.003,-0.004,0.01,103.0,104.0,100.0,13.3,1505.2,330.2,-0.8,1.8,2470.559,13.28,0.005,216.9
2021-07-06T04:19:03,42.805,6.029,0.001,0.006,0.008,101.0,102.0,101.0,13.4,1505.2,328.2,-0.8,1.8,2470.571,13.28,0.006,9.5
2021-07-06T04:22:03,42.805,6.029,0.012,0.004,0.015,101.0,103.0,100.0,13.4,1505.2,326.0,-0.8,1.8,2470.53,13.28,0.012,71.6
2021-07-06T04:25:03,42.805,6.029,0.025,0.022,0.054,101.0,102.0,100.0,13.3,1505.2,327.6,-0.7,1.8,2470.491,13.28,0.033,48.7
2021-07-06T04:28:03,42.805,6.029,-0.017,0.011,-0.022,100.0,105.0,100.0,13.3,1505.2,327.1,-0.7,1.8,2470.556,13.28,0.02,302.9
2021-07-06T04:31:03,42.805,6.029,0.0,0.027,0.04,103.0,104.0,100.0,13.4,1505.2,325.1,-0.8,1.8,2470.5,13.28,0.026,0.0
2021-07-06T04:34:03,42.805,6.029,0.038,-0.001,0.006,101.0,103.0,102.0,13.4,1505.2,326.0,-0.7,1.9,2470.521,13.28,0.038,91.5
2021-07-06T04:37:03,42.805,6.029,0.018,0.007,0.028,101.0,104.0,100.0,13.4,1505.2,330.2,-0.8,1.8,2470.542,13.28,0.019,68.8
2021-07-06T04:40:03,42.805,6.029,0.012,-0.005,-0.015,101.0,104.0,101.0,13.4,1505.2,328.9,-0.7,1.8,2470.523,13.28,0.013,112.6
2021-07-06T04:43:03,42.805,6.029,0.025,0.006,0.027,102.0,104.0,100.0,13.4,1505.2,325.3,-0.7,1.9,2470.481,13.28,0.025,76.5
2021-07-06T04:46:03,42.805,6.029,-0.026,-0.017,0.001,101.0,104.0,100.0,13.4,1505.2,328.3,-0.7,1.8,2470.537,13.28,0.031,236.8
2021-07-06T04:49:03,42.805,6.029,0.019,0.007,0.021,100.0,105.0,101.0,13.4,1505.2,324.7,-0.8,1.8,2470.549,13.28,0.02,69.8
2021-07-06T04:52:03,42.805,6.029,0.041,0.03,0.029,102.0,104.0,100.0,13.4,1505.2,326.5,-0.7,1.8,2470.484,13.28,0.05,53.8
2021-07-06T04:55:03,42.805,6.029,0.001,0.0,0.026,101.0,104.0,100.0,13.3,1505.2,328.5,-0.8,1.8,2470.539,13.28,0.001,90.0
2021-07-06T04:58:03,42.805,6.029,0.012,0.019,0.045,101.0,105.0,99.0,13.3,1505.2,328.9,-0.7,1.8,2470.57,13.28,0.022,32.3
2021-07-06T05:04:03,42.805,6.029,0.018,-0.01,0.033,101.0,105.0,101.0,13.4,1505.2,329.2,-0.8,1.8,2470.533,13.28,0.02,119.1
2021-07-06T05:07:03,42.805,6.029,-0.003,0.005,0.042,102.0,104.0,101.0,13.4,1505.2,328.7,-0.7,1.8,2470.543,13.28,0.005,329.0
2021-07-06T05:10:03,42.805,6.029,-0.003,0.007,-0.003,101.0,104.0,101.0,13.4,1505.2,326.8,-0.8,1.8,2470.506,13.28,0.007,336.8
2021-07-06T05:13:03,42.805,6.029,0.001,0.007,0.012,103.0,102.0,100.0,13.3,1505.2,325.6,-0.8,1.8,2470.536,13.28,0.007,8.1
2021-07-06T05:16:03,42.805,6.029,0.032,-0.013,0.011,101.0,103.0,100.0,13.4,1505.2,329.3,-0.8,1.8,2470.509,13.28,0.034,112.1
2021-07-06T05:19:03,42.805,6.029,0.02,0.019,0.038,104.0,105.0,100.0,13.3,1505.2,328.1,-0.8,1.8,2470.515,13.28,0.027,46.5
2021-07-06T05:22:03,42.805,6.029,0.025,-0.005,0.011,101.0,104.0,100.0,13.4,1505.2,327.2,-0.7,1.8,2470.512,13.28,0.025,101.3
2021-07-06T05:25:03,42.805,6.029,0.008,0.004,0.01,101.0,104.0,101.0,13.4,1505.2,324.7,-0.8,1.8,2470.518,13.28,0.008,63.4
2021-07-06T05:28:03,42.805,6.029,0.032,0.004,0.019,101.0,104.0,101.0,13.4,1505.2,326.9,-0.7,1.8,2470.499,13.28,0.032,82.9
2021-07-06T05:31:03,42.805,6.029,0.033,-0.005,0.019,101.0,104.0,101.0,13.4,1505.2,327.8,-0.7,1.8,2470.552,13.28,0.033,98.6
2021-07-06T05:34:03,42.805,6.029,0.011,0.007,0.032,101.0,103.0,101.0,13.4,1505.2,325.2,-0.7,1.8,2470.501,13.28,0.013,57.5
2021-07-06T05:37:03,42.805,6.029,0.004,0.008,0.015,101.0,104.0,100.0,13.3,1505.2,328.2,-0.8,1.8,2470.516,13.28,0.008,26.6
2021-07-06T05:40:03,42.805,6.029,0.024,-0.01,0.007,101.0,102.0,101.0,13.4,1505.2,326.6,-0.8,1.8,2470.486,13.28,0.026,112.6
2021-07-06T05:43:03,42.805,6.029,0.02,-0.007,-0.005,101.0,103.0,100.0,13.4,1505.2,326.9,-0.8,1.8,2470.51,13.28,0.021,109.3
2021-07-06T05:46:03,42.805,6.029,0.03,-0.022,-0.026,102.0,102.0,101.0,13.4,1505.2,326.4,-0.8,1.8,2470.519,13.28,0.037,126.3
2021-07-06T05:49:03,42.805,6.029,-0.008,0.017,0.031,102.0,104.0,100.0,13.4,1505.2,329.3,-0.8,1.8,2470.549,13.28,0.018,334.8
2021-07-06T05:52:03,42.805,6.029,-0.001,-0.002,0.009,102.0,104.0,101.0,13.3,1505.2,328.3,-0.7,1.8,2470.536,13.28,0.002,206.6
2021-07-06T05:55:03,42.805,6.029,0.012,0.005,0.025,101.0,104.0,100.0,13.4,1505.2,328.5,-0.7,1.8,2470.487,13.28,0.013,67.4
2021-07-06T05:58:03,42.805,6.029,0.011,0.005,0.015,101.0,103.0,100.0,13.4,1505.2,327.1,-0.7,1.8,2470.516,13.28,0.012,65.6
2021-07-06T06:04:03,42.805,6.029,0.003,-0.005,0.009,103.0,102.0,99.0,13.3,1505.2,328.4,-0.8,1.8,2470.533,13.28,0.005,149.0
2021-07-06T06:07:03,42.805,6.029,0.025,0.009,0.016,102.0,104.0,100.0,13.4,1505.2,329.4,-0.7,1.8,2470.502,13.28,0.026,70.2
2021-07-06T06:10:03,42.805,6.029,0.009,0.005,0.009,102.0,104.0,100.0,13.4,1505.2,328.2,-0.8,1.8,2470.53,13.28,0.01,60.9
2021-07-06T06:13:03,42.805,6.029,0.006,0.009,0.022,102.0,103.0,100.0,13.4,1505.2,324.4,-0.7,1.8,2470.5,13.28,0.01,33.7
2021-07-06T06:16:03,42.805,6.029,-0.017,0.005,0.032,101.0,104.0,101.0,13.4,1505.2,325.4,-0.7,1.8,2470.505,13.28,0.017,286.4
2021-07-06T06:19:03,42.805,6.029,0.017,-0.005,0.016,101.0,103.0,100.0,13.4,1505.2,328.4,-0.8,1.8,2470.504,13.28,0.017,106.4
2021-07-06T06:22:03,42.805,6.029,-0.012,0.007,-0.01,101.0,103.0,101.0,13.4,1505.2,330.0,-0.8,1.8,2470.542,13.28,0.013,300.3
2021-07-06T06:25:03,42.805,6.029,0.0,0.011,0.019,100.0,104.0,100.0,13.4,1505.2,328.8,-0.7,1.8,2470.519,13.28,0.011,0.0
2021-07-06T06:28:03,42.805,6.029,0.013,0.008,-0.003,102.0,103.0,101.0,13.4,1505.2,326.4,-0.8,1.8,2470.482,13.28,0.015,58.4
2021-07-06T06:31:03,42.805,6.029,0.003,0.007,0.008,102.0,103.0,101.0,13.3,1505.2,328.1,-0.7,1.8,2470.504,13.28,0.007,23.2
2021-07-06T06:34:03,42.805,6.029,0.014,-0.002,0.025,101.0,104.0,100.0,13.3,1505.2,326.0,-0.8,1.8,2470.506,13.28,0.014,98.1
2021-07-06T06:37:03,42.805,6.029,-0.008,0.007,-0.008,102.0,103.0,100.0,13.3,1505.2,328.5,-0.8,1.8,2470.504,13.28,0.01,311.2
2021-07-06T06:40:03,42.805,6.029,0.001,-0.001,0.026,103.0,101.0,101.0,13.4,1505.2,326.7,-0.7,1.8,2470.512,13.28,0.001,135.0
2021-07-06T06:43:03,42.805,6.029,0.013,-0.001,-0.009,101.0,103.0,101.0,13.4,1505.2,327.3,-0.8,1.8,2470.516,13.28,0.013,94.4
2021-07-06T06:46:03,42.805,6.029,0.032,0.005,0.02,102.0,102.0,100.0,13.4,1505.2,326.4,-0.8,1.9,2470.457,13.28,0.032,81.1
2021-07-06T06:49:03,42.805,6.029,0.017,0.016,0.008,102.0,103.0,101.0,13.3,1505.2,326.9,-0.8,1.8,2470.505,13.28,0.023,46.7
2021-07-06T06:52:03,42.805,6.029,0.0,-0.023,0.013,102.0,102.0,100.0,13.4,1505.2,324.6,-0.7,1.8,2470.456,13.28,0.023,180.0
2021-07-06T06:55:03,42.805,6.029,0.027,-0.01,0.023,102.0,103.0,101.0,13.4,1505.2,326.5,-0.7,1.8,2470.489,13.28,0.028,110.3
2021-07-06T06:58:03,42.805,6.029,0.009,-0.002,0.034,101.0,103.0,101.0,13.3,1505.2,329.1,-0.8,1.8,2470.49,13.28,0.009,102.5
2021-07-06T07:04:03,42.805,6.029,0.002,-0.011,0.007,101.0,103.0,100.0,13.3,1505.2,328.8,-0.8,1.8,2470.537,13.28,0.011,169.7
2021-07-06T07:07:03,42.805,6.029,0.005,0.002,0.017,101.0,104.0,101.0,13.4,1505.2,328.7,-0.7,1.8,2470.531,13.28,0.005,68.2
2021-07-06T07:10:03,42.805,6.029,0.031,0.0,0.01,102.0,102.0,100.0,13.3,1505.2,327.7,-0.8,1.8,2470.485,13.28,0.03,90.0
2021-07-06T07:13:03,42.805,6.029,0.003,-0.002,0.005,101.0,102.0,101.0,13.3,1505.2,325.0,-0.7,1.8,2470.513,13.28,0.003,123.7
2021-07-06T07:16:03,42.805,6.029,0.016,0.012,-0.003,101.0,105.0,100.0,13.4,1505.2,328.9,-0.7,1.8,2470.486,13.28,0.02,53.1
2021-07-06T07:19:03,42.805,6.029,0.0,0.015,0.045,100.0,102.0,100.0,13.3,1505.2,324.7,-0.8,1.8,2470.51,13.28,0.015,0.0
2021-07-06T07:22:03,42.805,6.029,0.0,0.009,0.034,101.0,103.0,100.0,13.3,1505.2,325.9,-0.7,1.8,2470.539,13.28,0.009,0.0
2021-07-06T07:25:03,42.805,6.029,0.033,-0.001,0.016,101.0,102.0,100.0,13.4,1505.2,325.0,-0.8,1.8,2470.506,13.28,0.033,91.7
2021-07-06T07:28:03,42.805,6.029,-0.006,-0.002,0.004,101.0,103.0,100.0,13.4,1505.2,329.6,-0.7,1.8,2470.45,13.28,0.006,251.6
2021-07-06T07:31:03,42.805,6.029,0.002,-0.013,0.021,102.0,103.0,100.0,13.4,1505.2,326.9,-0.7,1.9,2470.453,13.28,0.013,171.3
2021-07-06T07:34:03,42.805,6.029,0.006,0.001,0.008,101.0,104.0,99.0,13.3,1505.2,328.8,-0.7,1.8,2470.481,13.28,0.006,80.5
2021-07-06T07:37:03,42.805,6.029,-0.004,0.007,-0.006,102.0,103.0,100.0,13.4,1505.2,326.7,-0.8,1.9,2470.443,13.28,0.008,330.3
2021-07-06T07:40:03,42.805,6.029,-0.014,0.026,0.019,102.0,104.0,100.0,13.3,1505.2,327.4,-0.7,1.8,2470.469,13.28,0.029,331.7
2021-07-06T07:43:03,42.805,6.029,0.018,0.012,0.038,101.0,103.0,101.0,13.4,1505.2,324.7,-0.8,1.8,2470.456,13.28,0.021,56.3
2021-07-06T07:46:03,42.805,6.029,-0.005,0.033,0.029,101.0,103.0,101.0,13.4,1505.2,327.4,-0.7,1.8,2470.468,13.28,0.033,351.4
2021-07-06T07:49:03,42.805,6.029,0.041,-0.007,0.026,100.0,103.0,100.0,13.4,1505.2,325.8,-0.8,1.8,2470.447,13.28,0.041,99.7
2021-07-06T07:52:03,42.805,6.029,-0.018,-0.006,0.016,101.0,105.0,100.0,13.4,1505.2,328.8,-0.8,1.8,2470.444,13.28,0.018,251.6
2021-07-06T07:55:03,42.805,6.029,0.017,0.001,0.015,103.0,104.0,99.0,13.3,1505.2,325.5,-0.8,1.8,2470.445,13.28,0.017,86.6
2021-07-06T07:58:03,42.805,6.029,0.014,-0.003,0.0,102.0,104.0,99.0,13.4,1505.2,325.6,-0.7,1.8,2470.449,13.28,0.014,102.1
2021-07-06T08:04:03,42.805,6.029,0.014,0.021,0.019,102.0,103.0,100.0,13.4,1505.2,329.9,-0.8,1.8,2470.489,13.28,0.025,33.7
2021-07-06T08:07:03,42.805,6.029,0.025,-0.016,-0.01,102.0,104.0,100.0,13.3,1505.2,329.6,-0.7,1.8,2470.497,13.28,0.029,122.6
2021-07-06T08:10:03,42.805,6.029,0.029,0.004,0.035,102.0,104.0,100.0,13.4,1505.2,329.9,-0.8,1.8,2470.465,13.28,0.029,82.2
2021-07-06T08:13:03,42.805,6.029,0.011,0.01,0.026,102.0,104.0,101.0,13.4,1505.2,326.4,-0.7,1.8,2470.446,13.28,0.014,47.7
2021-07-06T08:16:03,42.805,6.029,0.019,-0.005,0.021,100.0,103.0,101.0,13.3,1505.2,328.2,-0.8,1.8,2470.478,13.28,0.019,104.7
2021-07-06T08:19:03,42.805,6.029,0.008,-0.008,0.006,101.0,104.0,100.0,13.4,1505.2,325.7,-0.7,1.9,2470.478,13.28,0.011,135.0
2021-07-06T08:22:03,42.805,6.029,0.017,-0.001,0.017,101.0,103.0,101.0,13.4,1505.2,329.8,-0.8,1.8,2470.486,13.28,0.017,93.4
2021-07-06T08:25:03,42.805,6.029,0.024,0.013,0.009,101.0,102.0,101.0,13.4,1505.2,328.8,-0.7,1.8,2470.457,13.28,0.027,61.6
2021-07-06T08:28:03,42.805,6.029,-0.006,0.002,0.017,101.0,103.0,101.0,13.3,1505.2,329.1,-0.7,1.8,2470.465,13.28,0.006,288.4
2021-07-06T08:31:03,42.805,6.029,0.026,-0.008,0.001,102.0,103.0,100.0,13.3,1505.2,324.9,-0.7,1.8,2470.388,13.28,0.027,107.1
2021-07-06T08:34:03,42.805,6.029,0.015,0.026,0.041,103.0,103.0,100.0,13.4,1505.2,330.0,-0.7,1.8,2470.444,13.28,0.03,30.0
2021-07-06T08:37:03,42.805,6.029,-0.006,0.002,0.049,101.0,102.0,101.0,13.4,1505.2,328.7,-0.7,1.8,2470.449,13.28,0.006,288.4
2021-07-06T08:40:03,42.805,6.029,0.01,-0.009,0.002,101.0,104.0,100.0,13.4,1505.2,329.0,-0.7,1.8,2470.441,13.28,0.013,132.0
2021-07-06T08:43:03,42.805,6.029,0.007,0.001,0.025,102.0,103.0,100.0,13.4,1505.2,327.7,-0.8,1.8,2470.455,13.28,0.007,81.9
2021-07-06T08:46:03,42.805,6.029,0.024,-0.003,-0.007,101.0,105.0,100.0,13.4,1505.2,328.0,-0.7,1.8,2470.469,13.28,0.024,97.1
2021-07-06T08:49:03,42.805,6.029,0.027,-0.009,0.011,101.0,105.0,99.0,13.4,1505.2,328.1,-0.8,1.8,2470.435,13.28,0.028,108.4
2021-07-06T08:52:03,42.805,6.029,-0.014,0.007,-0.01,103.0,102.0,100.0,13.3,1505.2,328.8,-0.8,1.8,2470.45,13.28,0.015,296.6
2021-07-06T08:55:03,42.805,6.029,0.02,0.002,0.06,101.0,105.0,99.0,13.4,1505.2,328.9,-0.8,1.8,2470.451,13.28,0.02,84.3
2021-07-06T08:58:03,42.805,6.029,0.007,0.008,0.007,102.0,104.0,100.0,13.4,1505.2,326.0,-0.8,1.8,2470.48,13.28,0.01,41.2
2021-07-06T09:04:03,42.805,6.029,0.013,-0.003,-0.02,101.0,103.0,101.0,13.4,1505.2,329.0,-0.7,1.8,2470.465,13.28,0.013,103.0
2021-07-06T09:07:03,42.805,6.029,0.006,0.001,0.007,102.0,101.0,100.0,13.4,1505.2,330.3,-0.7,1.9,2470.455,13.28,0.006,80.5
2021-07-06T09:10:03,42.805,6.029,0.021,-0.003,0.009,102.0,103.0,101.0,13.4,1505.2,326.1,-0.8,1.8,2470.435,13.28,0.021,98.1
2021-07-06T09:13:03,42.805,6.029,0.008,0.01,0.033,101.0,102.0,101.0,13.4,1505.2,328.7,-0.8,1.9,2470.449,13.28,0.012,38.7
2021-07-06T09:16:03,42.805,6.029,-0.004,0.013,0.03,100.0,105.0,100.0,13.4,1505.2,327.0,-0.8,1.8,2470.477,13.28,0.013,342.9
2021-07-06T09:19:03,42.805,6.029,0.013,-0.025,0.001,102.0,102.0,101.0,13.4,1505.2,327.1,-0.8,1.8,2470.419,13.28,0.028,152.5
2021-07-06T09:22:03,42.805,6.029,0.006,0.01,-0.006,101.0,104.0,100.0,13.4,1505.2,325.2,-0.7,1.8,2470.454,13.28,0.011,31.0
2021-07-06T09:25:03,42.805,6.029,0.004,-0.004,0.008,101.0,103.0,102.0,13.4,1505.2,324.8,-0.7,1.8,2470.399,13.28,0.005,135.0
2021-07-06T09:28:03,42.805,6.029,0.036,-0.001,0.008,102.0,103.0,101.0,13.3,1505.2,329.6,-0.8,1.8,2470.423,13.28,0.036,91.6
2021-07-06T09:31:03,42.805,6.029,0.025,-0.001,0.016,101.0,104.0,100.0,13.4,1505.2,327.2,-0.7,1.8,2470.437,13.28,0.025,92.3
2021-07-06T09:34:03,42.805,6.029,-0.007,0.009,-0.006,99.0,103.0,101.0,13.3,1505.2,327.3,-0.8,1.8,2470.426,13.28,0.011,322.1
2021-07-06T09:37:03,42.805,6.029,0.022,-0.008,0.029,102.0,102.0,100.0,13.4,1505.2,324.7,-0.8,1.8,2470.395,13.28,0.023,110.0
2021-07-06T09:40:03,42.805,6.029,0.02,-0.002,0.012,100.0,105.0,98.0,13.4,1505.2,329.9,-0.8,1.8,2470.458,13.28,0.02,95.7
2021-07-06T09:43:03,42.805,6.029,0.029,-0.004,0.031,100.0,103.0,100.0,13.4,1505.2,328.5,-0.7,1.8,2470.431,13.28,0.029,97.8
2021-07-06T09:46:03,42.805,6.029,0.006,0.015,0.001,100.0,104.0,100.0,13.4,1505.2,330.3,-0.8,1.8,2470.424,13.28,0.016,21.8
2021-07-06T09:49:03,42.805,6.029,0.007,0.014,0.05,101.0,102.0,101.0,13.3,1505.2,326.3,-0.8,1.8,2470.377,13.28,0.015,26.6
2021-07-06T09:52:03,42.805,6.029,0.006,0.006,0.013,103.0,101.0,100.0,13.3,1505.2,329.6,-0.8,1.8,2470.392,13.28,0.008,45.0
2021-07-06T09:55:03,42.805,6.029,0.008,0.006,0.017,101.0,102.0,101.0,13.4,1505.2,326.7,-0.8,1.8,2470.411,13.28,0.01,53.1
2021-07-06T09:58:03,42.805,6.029,0.005,0.019,0.034,101.0,103.0,100.0,13.3,1505.2,328.6,-0.7,1.9,2470.431,13.28,0.019,14.7
2021-07-06T10:04:03,42.805,6.029,-0.006,0.006,0.008,101.0,103.0,100.0,13.3,1505.2,327.7,-0.8,1.8,2470.44,13.28,0.008,315.0